Regional Weather Roundup
Issued by NWS Bismarck, ND

Home | Current Version | Previous Version | Text Only | Print | Product List | Glossary On
Versions: 1 2 3 4 5 6 7 8 9 10 11 12 13 14 15 16 17 18 19 20 21 22 23 24 25 26 27 28 29 30 31 32 33 34 35 36 37 38 39 40 41 42 43 44 45 46 47 48 49 50
000
ASUS43 KBIS 192120
RWRBIS

NWR BROADCAST TEXT
NATIONAL WEATHER SERVICE BISMARCK ND
300 PM CST FRI DEC 19 2014

NOTE: "FAIR" INDICATES FEW OR NO CLOUDS BELOW 12,000 FEET WITH NO
SIGNIFICANT WEATHER AND/OR OBSTRUCTIONS TO VISIBILITY.


CITY           SKY/WX    TMP DP  RH WIND       PRES   REMARKS
WILLISTON      CLOUDY    26  24  92 E3        29.90F FOG
MINOT          LGT SNOW  28  26  92 W3        29.92R FOG
MINOT AFB      CLOUDY    27  27 100 NW3       29.91S
BISMARCK       MOSUNNY   38  28  67 CALM      29.92S
DICKINSON      SUNNY     44  28  53 W9        29.86S
GARRISON         N/A     28  26  92 CALM      29.91R
HETTINGER ARPT SUNNY     44  27  51 W8        29.90F
JAMESTOWN      CLOUDY    31  27  85 S7        29.93S
BEACH          FAIR      41  28  60 SW9       29.88S
CARRINGTON     CLOUDY    30  30 100 MISG      29.94R
CROSBY         CLOUDY    25  25 100 NW5       29.92R FOG     WCI  19
HARVEY         FOG       27  27 100 CALM      29.93S VSB 1/4
HAZEN          FAIR      36  27  69 CALM      29.91S
LINTON         FAIR      36  30  80 S6        29.92S
MANDAN         FAIR      37  28  70 NW3       29.92R
OAKES            N/A     30  30 100 S12       29.98S FOG
RUGBY          CLOUDY    27  27 100 CALM      29.93S
STANLEY        FOG       25  25 100 NW5       29.89S VSB 1   WCI  19
TIOGA          FOG       25  25 100 W5        29.92S VSB 1/4 WCI  19
WATFORD CITY   FAIR      36  32  87 W6        29.88S
$$

CITY           SKY/WX    TMP DP  RH WIND       PRES   REMARKS
GRAND FORKS    FOG       28  27  96 S9        30.00F VSB 1   WCI  19
GRAND FORKS AF CLOUDY    28  28 100 S10       30.00S FOG     WCI  19
DEVILS LAKE    CLOUDY    27  19  74 S5        29.93R
FARGO          CLOUDY    32  27  81 SE12      30.02S HAZE
CANDO          CLOUDY    27  27 100 S5        29.94S FOG
CAVALIER       FOG       27  27 100 S7        30.00S VSB 1/2 WCI  19
GWINNER        CLOUDY    32  32 100 MISG      30.01R
LANGDON        FOG       27  25  93 MISG      29.94S VSB 1/2
ROLLA          CLOUDY    27  27 100 S3        29.92S
WALHALLA         N/A     27  27 100 SE6       30.00R FOG     WCI  20
$$

CITY           SKY/WX    TMP DP  RH WIND       PRES   REMARKS
ABERDEEN       CLOUDY    30  26  85 S17       29.99F FOG     WCI  18
MOBRIDGE       MOSUNNY   34  28  79 SE6       29.90F
BUFFALO          N/A     44  23  43 W7        29.83S
RAPID CITY     CLOUDY    45  26  47 E3        29.94R
GLASGOW        SUNNY     38  27  64 E3        29.85F
SIDNEY         SUNNY     41  28  60 CALM      29.91S
WOLF POINT     SUNNY     39  29  67 CALM      29.88F
GLENDIVE       SUNNY     43  27  52 S8        29.89S
MILES CITY     SUNNY     44  24  45 W8        29.88F
BAKER          SUNNY     43  24  47 W8        29.89F
$$

CITY           SKY/WX    TMP DP  RH WIND       PRES   REMARKS
BILLINGS       PTSUNNY   39  23  52 S8        29.87F
GREAT FALLS    PTSUNNY   48  28  46 SW17      29.77F
REGINA         FOG       16  16 100 NW5       29.91  VSB 1   WCI   9
ESTEVAN        FOG       23  21  93 W6        29.91R VSB 3/8 WCI  16
$$




USA.gov is the U.S. government's official web portal to all federal, state and local government web resources and services.